Wetterdaten: Woche 20.01.25 - 26.01.25 (KW4)
Datum Zeit Temp. I. Temp. A. Feuchte I. Feuchte A. Luftdruck Regen Wind Richtung Sonnenschein Solar Taupunkt Windchill Windböen
20.01.2025 00:00 22,2 °C -3,0 °C 53 % 96 % 1020,9 hPa 0,0 l/m² 0,8 km/h (0 Bft) O-SO 0,00 h 0 W/m² -3,6 °C -3,0 °C 2,0 km/h (1 Bft)
20.01.2025 01:00 22,2 °C -3,0 °C 53 % 96 % 1020,4 hPa 0,0 l/m² 0,0 km/h (0 Bft) O-SO 0,00 h 0 W/m² -3,6 °C -3,0 °C 0,1 km/h (0 Bft)
20.01.2025 02:00 22,2 °C -3,4 °C 52 % 95 % 1020,0 hPa 0,0 l/m² 0,0 km/h (0 Bft) O-SO 0,00 h 0 W/m² -4,0 °C -3,4 °C 0,0 km/h (0 Bft)
20.01.2025 03:00 22,1 °C -3,7 °C 52 % 95 % 1019,6 hPa 0,0 l/m² 0,0 km/h (0 Bft) O-SO 0,00 h 0 W/m² -4,3 °C -3,7 °C 0,0 km/h (0 Bft)
20.01.2025 04:00 22,2 °C -3,7 °C 52 % 95 % 1019,2 hPa 0,0 l/m² 0,0 km/h (0 Bft) O-SO 0,00 h 0 W/m² -4,4 °C -3,7 °C 0,0 km/h (0 Bft)
20.01.2025 05:00 22,2 °C -4,1 °C 51 % 95 % 1018,8 hPa 0,0 l/m² 0,0 km/h (0 Bft) O-SO 0,00 h 0 W/m² -4,8 °C -4,1 °C 0,0 km/h (0 Bft)
20.01.2025 06:00 22,1 °C -4,2 °C 51 % 94 % 1018,7 hPa 0,0 l/m² 0,0 km/h (0 Bft) O-SO 0,00 h 0 W/m² -5,0 °C -4,2 °C 0,0 km/h (0 Bft)
20.01.2025 07:00 22,1 °C -4,4 °C 49 % 94 % 1018,8 hPa 0,0 l/m² 0,0 km/h (0 Bft) O-SO 0,00 h 0 W/m² -5,2 °C -4,4 °C 0,0 km/h (0 Bft)
20.01.2025 08:00 22,2 °C -4,5 °C 48 % 94 % 1019,0 hPa 0,0 l/m² 0,0 km/h (0 Bft) O-SO 0,00 h 15 W/m² -5,3 °C -4,5 °C 0,0 km/h (0 Bft)
20.01.2025 09:00 22,3 °C -3,3 °C 48 % 95 % 1019,3 hPa 0,0 l/m² 0,0 km/h (0 Bft) O-SO 0,68 h 80 W/m² -4,0 °C -3,3 °C 0,0 km/h (0 Bft)
20.01.2025 10:00 23,0 °C -1,2 °C 47 % 95 % 1019,5 hPa 0,2 l/m² 0,9 km/h (0 Bft) O-SO 1,00 h 218 W/m² -1,9 °C -1,2 °C 2,0 km/h (1 Bft)
20.01.2025 11:00 23,3 °C 0,3 °C 47 % 93 % 1019,5 hPa 0,0 l/m² 0,6 km/h (0 Bft) SO 1,00 h 249 W/m² -0,7 °C 0,3 °C 1,5 km/h (1 Bft)
20.01.2025 12:00 23,4 °C 2,2 °C 47 % 92 % 1019,4 hPa 0,0 l/m² 0,1 km/h (0 Bft) SO 1,00 h 284 W/m² 1,1 °C 2,2 °C 0,5 km/h (0 Bft)
20.01.2025 13:00 23,6 °C 3,7 °C 47 % 90 % 1019,3 hPa 0,0 l/m² 3,8 km/h (1 Bft) S-SW 1,00 h 279 W/m² 2,2 °C 3,6 °C 5,7 km/h (2 Bft)
20.01.2025 14:00 23,4 °C 4,7 °C 47 % 87 % 1018,8 hPa 0,0 l/m² 1,9 km/h (1 Bft) S-SW 1,00 h 194 W/m² 2,7 °C 4,7 °C 3,2 km/h (1 Bft)
20.01.2025 15:00 23,2 °C 4,7 °C 47 % 86 % 1018,4 hPa 0,0 l/m² 1,0 km/h (0 Bft) S 0,93 h 105 W/m² 2,6 °C 4,7 °C 2,4 km/h (1 Bft)
20.01.2025 16:00 23,0 °C 2,9 °C 48 % 88 % 1018,5 hPa 0,0 l/m² 0,3 km/h (0 Bft) S-SW 0,00 h 19 W/m² 1,2 °C 2,9 °C 0,6 km/h (0 Bft)
20.01.2025 17:00 22,6 °C 0,5 °C 47 % 90 % 1018,7 hPa 0,0 l/m² 0,0 km/h (0 Bft) S-SW 0,00 h 0 W/m² -0,9 °C 0,5 °C 0,0 km/h (0 Bft)
20.01.2025 18:00 22,4 °C -0,8 °C 48 % 92 % 1018,5 hPa 0,0 l/m² 0,0 km/h (0 Bft) S-SW 0,00 h 0 W/m² -2,0 °C -0,8 °C 0,0 km/h (0 Bft)
20.01.2025 19:00 22,4 °C -2,1 °C 50 % 92 % 1018,8 hPa 0,0 l/m² 0,0 km/h (0 Bft) S-SW 0,00 h 0 W/m² -3,2 °C -2,1 °C 0,0 km/h (0 Bft)
20.01.2025 20:00 22,5 °C -3,2 °C 50 % 93 % 1019,0 hPa 0,0 l/m² 0,1 km/h (0 Bft) S-SW 0,00 h 0 W/m² -4,2 °C -3,2 °C 0,2 km/h (0 Bft)
20.01.2025 21:00 22,7 °C -4,1 °C 49 % 93 % 1019,1 hPa 0,0 l/m² 0,1 km/h (0 Bft) S-SW 0,00 h 0 W/m² -5,1 °C -4,1 °C 0,6 km/h (0 Bft)
20.01.2025 22:00 22,6 °C -3,0 °C 48 % 94 % 1019,2 hPa 0,0 l/m² 1,4 km/h (1 Bft) W-SW 0,00 h 0 W/m² -3,8 °C -3,0 °C 3,5 km/h (1 Bft)
20.01.2025 23:00 22,5 °C -2,2 °C 49 % 94 % 1019,7 hPa 0,0 l/m² 2,0 km/h (1 Bft) NW 0,00 h 0 W/m² -3,0 °C -2,2 °C 4,1 km/h (1 Bft)
21.01.2025 00:00 22,4 °C -2,3 °C 49 % 95 % 1019,5 hPa 0,0 l/m² 0,1 km/h (0 Bft) N-NW 0,00 h 0 W/m² -3,0 °C -2,3 °C 0,8 km/h (0 Bft)
21.01.2025 01:00 22,5 °C -2,5 °C 49 % 95 % 1019,1 hPa 0,0 l/m² 0,1 km/h (0 Bft) N-NW 0,00 h 0 W/m² -3,2 °C -2,5 °C 0,4 km/h (0 Bft)
21.01.2025 02:00 22,4 °C -2,5 °C 49 % 95 % 1019,2 hPa 0,0 l/m² 0,3 km/h (0 Bft) N-NW 0,00 h 0 W/m² -3,1 °C -2,5 °C 1,1 km/h (0 Bft)
21.01.2025 03:00 22,4 °C -2,4 °C 49 % 95 % 1019,1 hPa 0,0 l/m² 0,3 km/h (0 Bft) N-NW 0,00 h 0 W/m² -3,1 °C -2,4 °C 1,2 km/h (1 Bft)
21.01.2025 04:00 22,4 °C -2,6 °C 49 % 95 % 1019,2 hPa 0,0 l/m² 0,3 km/h (0 Bft) W-NW 0,00 h 0 W/m² -3,2 °C -2,6 °C 0,9 km/h (0 Bft)
21.01.2025 05:00 22,4 °C -2,6 °C 49 % 95 % 1019,4 hPa 0,0 l/m² 0,2 km/h (0 Bft) W-NW 0,00 h 0 W/m² -3,3 °C -2,6 °C 0,6 km/h (0 Bft)
21.01.2025 06:00 22,4 °C -2,6 °C 49 % 95 % 1019,3 hPa 0,0 l/m² 0,5 km/h (0 Bft) W-NW 0,00 h 0 W/m² -3,3 °C -2,6 °C 1,3 km/h (1 Bft)
21.01.2025 07:00 22,3 °C -2,5 °C 45 % 95 % 1019,2 hPa 0,0 l/m² 0,6 km/h (0 Bft) W-NW 0,00 h 0 W/m² -3,2 °C -2,5 °C 1,6 km/h (1 Bft)
21.01.2025 08:00 22,3 °C -2,6 °C 46 % 95 % 1019,2 hPa 0,0 l/m² 2,1 km/h (1 Bft) S-SO 0,00 h 9 W/m² -3,3 °C -2,6 °C 3,7 km/h (1 Bft)
21.01.2025 09:00 22,3 °C -2,9 °C 46 % 95 % 1019,1 hPa 0,0 l/m² 2,8 km/h (1 Bft) S-SO 0,05 h 30 W/m² -3,5 °C -2,9 °C 5,2 km/h (1 Bft)
21.01.2025 10:00 22,3 °C -2,9 °C 47 % 95 % 1019,2 hPa 0,0 l/m² 3,8 km/h (1 Bft) S 0,83 h 62 W/m² -3,5 °C -3,0 °C 5,5 km/h (2 Bft)
21.01.2025 11:00 22,3 °C -2,7 °C 47 % 95 % 1018,8 hPa 0,0 l/m² 3,0 km/h (1 Bft) S 1,00 h 96 W/m² -3,3 °C -2,7 °C 4,8 km/h (1 Bft)
21.01.2025 12:00 22,3 °C -2,2 °C 47 % 95 % 1018,3 hPa 0,0 l/m² 3,5 km/h (1 Bft) S 1,00 h 118 W/m² -2,8 °C -2,2 °C 5,5 km/h (2 Bft)
21.01.2025 13:00 22,4 °C -1,9 °C 47 % 95 % 1018,0 hPa 0,0 l/m² 3,2 km/h (1 Bft) SO 1,00 h 113 W/m² -2,6 °C -1,9 °C 5,0 km/h (1 Bft)
21.01.2025 14:00 22,4 °C -1,4 °C 46 % 95 % 1017,7 hPa 0,0 l/m² 4,1 km/h (1 Bft) S-SO 1,00 h 97 W/m² -2,1 °C -1,5 °C 6,1 km/h (2 Bft)
21.01.2025 15:00 22,3 °C -1,3 °C 47 % 96 % 1017,6 hPa 0,0 l/m² 3,1 km/h (1 Bft) S-SO 0,62 h 55 W/m² -1,9 °C -1,3 °C 4,6 km/h (1 Bft)
21.01.2025 16:00 22,2 °C -1,3 °C 47 % 96 % 1017,6 hPa 0,0 l/m² 3,0 km/h (1 Bft) S-SO 0,00 h 15 W/m² -1,9 °C -1,3 °C 4,4 km/h (1 Bft)
21.01.2025 17:00 22,0 °C -1,5 °C 46 % 95 % 1017,4 hPa 0,0 l/m² 2,8 km/h (1 Bft) O-SO 0,00 h 0 W/m² -2,2 °C -1,5 °C 4,3 km/h (1 Bft)
21.01.2025 18:00 21,9 °C -1,7 °C 46 % 95 % 1017,5 hPa 0,0 l/m² 2,2 km/h (1 Bft) O-SO 0,00 h 0 W/m² -2,4 °C -1,7 °C 3,5 km/h (1 Bft)
21.01.2025 19:00 22,0 °C -2,1 °C 48 % 95 % 1017,3 hPa 0,0 l/m² 1,8 km/h (1 Bft) O-SO 0,00 h 0 W/m² -2,7 °C -2,1 °C 3,1 km/h (1 Bft)
21.01.2025 20:00 22,3 °C -2,5 °C 49 % 95 % 1017,1 hPa 0,0 l/m² 2,5 km/h (1 Bft) O-SO 0,00 h 0 W/m² -3,2 °C -2,5 °C 4,1 km/h (1 Bft)
21.01.2025 21:00 22,4 °C -2,9 °C 49 % 95 % 1017,0 hPa 0,0 l/m² 2,1 km/h (1 Bft) O-SO 0,00 h 0 W/m² -3,6 °C -2,9 °C 3,5 km/h (1 Bft)
21.01.2025 22:00 22,4 °C -3,2 °C 49 % 95 % 1016,9 hPa 0,0 l/m² 1,1 km/h (1 Bft) O-SO 0,00 h 0 W/m² -3,9 °C -3,2 °C 2,0 km/h (1 Bft)
21.01.2025 23:00 22,4 °C -3,6 °C 50 % 95 % 1016,9 hPa 0,0 l/m² 0,0 km/h (0 Bft) O-SO 0,00 h 0 W/m² -4,3 °C -3,6 °C 0,2 km/h (0 Bft)
22.01.2025 00:00 22,4 °C -3,9 °C 51 % 95 % 1016,4 hPa 0,0 l/m² 0,1 km/h (0 Bft) O-SO 0,00 h 0 W/m² -4,7 °C -3,9 °C 0,3 km/h (0 Bft)
22.01.2025 01:00 22,3 °C -4,8 °C 52 % 94 % 1016,1 hPa 0,0 l/m² 0,1 km/h (0 Bft) O-SO 0,00 h 0 W/m² -5,6 °C -4,8 °C 0,3 km/h (0 Bft)
22.01.2025 02:00 22,4 °C -5,2 °C 52 % 94 % 1015,7 hPa 0,0 l/m² 0,0 km/h (0 Bft) O-SO 0,00 h 0 W/m² -6,0 °C -5,2 °C 0,0 km/h (0 Bft)
22.01.2025 03:00 22,3 °C -5,5 °C 51 % 94 % 1015,1 hPa 0,0 l/m² 0,0 km/h (0 Bft) O-SO 0,00 h 0 W/m² -6,4 °C -5,5 °C 0,0 km/h (0 Bft)
22.01.2025 04:00 22,3 °C -5,8 °C 51 % 93 % 1014,6 hPa 0,0 l/m² 0,0 km/h (0 Bft) O-SO 0,00 h 0 W/m² -6,7 °C -5,8 °C 0,1 km/h (0 Bft)
22.01.2025 05:00 22,4 °C -5,8 °C 51 % 94 % 1014,3 hPa 0,0 l/m² 0,0 km/h (0 Bft) O-SO 0,00 h 0 W/m² -6,6 °C -5,8 °C 0,0 km/h (0 Bft)
22.01.2025 06:00 22,3 °C -5,9 °C 49 % 93 % 1014,0 hPa 0,0 l/m² 0,3 km/h (0 Bft) O-SO 0,00 h 0 W/m² -6,8 °C -5,9 °C 0,7 km/h (0 Bft)
22.01.2025 07:00 22,1 °C -5,7 °C 45 % 93 % 1013,7 hPa 0,0 l/m² 0,1 km/h (0 Bft) O-SO 0,00 h 5 W/m² -6,7 °C -5,7 °C 0,2 km/h (0 Bft)
22.01.2025 08:00 22,1 °C -5,5 °C 46 % 93 % 1013,6 hPa 0,0 l/m² 0,0 km/h (0 Bft) O-SO 0,03 h 24 W/m² -6,4 °C -5,5 °C 0,1 km/h (0 Bft)
22.01.2025 09:00 22,4 °C -3,6 °C 46 % 95 % 1013,0 hPa 0,0 l/m² 1,8 km/h (1 Bft) O-SO 1,00 h 92 W/m² -4,3 °C -3,6 °C 3,3 km/h (1 Bft)
22.01.2025 10:00 22,7 °C -1,5 °C 46 % 95 % 1012,7 hPa 0,2 l/m² 0,6 km/h (0 Bft) O-SO 1,00 h 178 W/m² -2,2 °C -1,5 °C 1,5 km/h (1 Bft)
22.01.2025 11:00 22,9 °C 0,2 °C 46 % 94 % 1012,2 hPa 0,0 l/m² 1,6 km/h (1 Bft) O-SO 1,00 h 198 W/m² -0,7 °C 0,2 °C 2,7 km/h (1 Bft)
22.01.2025 12:00 23,0 °C 2,0 °C 46 % 91 % 1011,2 hPa 0,0 l/m² 0,6 km/h (0 Bft) O-SO 1,00 h 247 W/m² 0,8 °C 2,0 °C 1,7 km/h (1 Bft)
22.01.2025 13:00 23,0 °C 4,0 °C 46 % 87 % 1009,9 hPa 0,0 l/m² 1,8 km/h (1 Bft) O-SO 1,00 h 198 W/m² 2,1 °C 4,0 °C 3,2 km/h (1 Bft)
22.01.2025 14:00 22,8 °C 4,3 °C 46 % 86 % 1009,0 hPa 0,0 l/m² 7,4 km/h (2 Bft) O 1,00 h 142 W/m² 2,2 °C 3,1 °C 10,0 km/h (2 Bft)
22.01.2025 15:00 22,8 °C 4,8 °C 46 % 83 % 1008,5 hPa 0,0 l/m² 4,2 km/h (1 Bft) O 0,82 h 106 W/m² 2,1 °C 4,5 °C 6,0 km/h (2 Bft)
22.01.2025 16:00 22,6 °C 2,8 °C 47 % 85 % 1007,9 hPa 0,0 l/m² 5,5 km/h (2 Bft) O-NO 0,00 h 19 W/m² 0,5 °C 1,9 °C 7,9 km/h (2 Bft)
22.01.2025 17:00 22,4 °C 1,6 °C 47 % 88 % 1007,6 hPa 0,0 l/m² 6,2 km/h (2 Bft) O-NO 0,00 h 0 W/m² -0,1 °C 1,0 °C 8,2 km/h (2 Bft)
22.01.2025 18:00 22,3 °C 0,9 °C 47 % 89 % 1007,2 hPa 0,0 l/m² 3,5 km/h (1 Bft) O-NO 0,00 h 0 W/m² -0,7 °C 0,6 °C 5,2 km/h (1 Bft)
22.01.2025 19:00 22,2 °C 0,5 °C 47 % 89 % 1007,0 hPa 0,0 l/m² 0,1 km/h (0 Bft) O 0,00 h 0 W/m² -1,1 °C 0,5 °C 0,3 km/h (0 Bft)
22.01.2025 20:00 22,3 °C 1,6 °C 48 % 86 % 1006,4 hPa 0,0 l/m² 2,2 km/h (1 Bft) O 0,00 h 0 W/m² -0,5 °C 1,6 °C 3,6 km/h (1 Bft)
22.01.2025 21:00 22,3 °C 1,6 °C 48 % 85 % 1005,9 hPa 0,0 l/m² 0,6 km/h (0 Bft) O 0,00 h 0 W/m² -0,7 °C 1,6 °C 1,0 km/h (0 Bft)
22.01.2025 22:00 22,2 °C 1,5 °C 48 % 85 % 1005,4 hPa 0,0 l/m² 0,3 km/h (0 Bft) O 0,00 h 0 W/m² -0,8 °C 1,5 °C 0,9 km/h (0 Bft)
22.01.2025 23:00 22,1 °C 1,3 °C 48 % 86 % 1004,8 hPa 0,0 l/m² 1,1 km/h (1 Bft) O 0,00 h 0 W/m² -0,8 °C 1,3 °C 2,4 km/h (1 Bft)
23.01.2025 00:00 22,0 °C 2,0 °C 48 % 84 % 1004,2 hPa 0,0 l/m² 3,5 km/h (1 Bft) O 0,00 h 0 W/m² -0,4 °C 1,9 °C 6,2 km/h (2 Bft)
23.01.2025 01:00 21,9 °C 2,2 °C 48 % 83 % 1003,2 hPa 0,0 l/m² 8,5 km/h (2 Bft) O 0,00 h 0 W/m² -0,4 °C 0,2 °C 11,6 km/h (2 Bft)
23.01.2025 02:00 21,9 °C 2,3 °C 47 % 81 % 1002,3 hPa 0,0 l/m² 13,1 km/h (3 Bft) O 0,00 h 0 W/m² -0,5 °C -2,9 °C 16,3 km/h (3 Bft)
23.01.2025 03:00 21,8 °C 2,7 °C 47 % 79 % 1001,3 hPa 0,0 l/m² 10,5 km/h (2 Bft) O 0,00 h 0 W/m² -0,5 °C -0,7 °C 14,3 km/h (3 Bft)
23.01.2025 04:00 21,8 °C 2,8 °C 48 % 79 % 1000,5 hPa 0,0 l/m² 12,9 km/h (3 Bft) O-SO 0,00 h 0 W/m² -0,4 °C -2,3 °C 17,6 km/h (3 Bft)
23.01.2025 05:00 21,8 °C 3,0 °C 48 % 80 % 999,9 hPa 0,0 l/m² 11,0 km/h (2 Bft) O 0,00 h 0 W/m² -0,1 °C -0,9 °C 14,9 km/h (3 Bft)
23.01.2025 06:00 21,7 °C 3,0 °C 48 % 84 % 999,2 hPa 0,0 l/m² 7,9 km/h (2 Bft) O 0,00 h 0 W/m² 0,5 °C 1,3 °C 11,0 km/h (2 Bft)
23.01.2025 07:00 21,6 °C 3,1 °C 46 % 87 % 998,9 hPa 0,0 l/m² 6,2 km/h (2 Bft) O 0,00 h 0 W/m² 1,1 °C 2,4 °C 8,6 km/h (2 Bft)
23.01.2025 08:00 21,6 °C 3,2 °C 47 % 88 % 999,0 hPa 0,4 l/m² 3,6 km/h (1 Bft) O-NO 0,00 h 6 W/m² 1,4 °C 3,2 °C 5,5 km/h (2 Bft)
23.01.2025 09:00 21,6 °C 3,1 °C 47 % 89 % 1000,1 hPa 0,4 l/m² 2,9 km/h (1 Bft) O-NO 0,00 h 16 W/m² 1,5 °C 2,9 °C 4,0 km/h (1 Bft)
23.01.2025 10:00 21,6 °C 3,9 °C 47 % 92 % 1001,4 hPa 0,4 l/m² 12,9 km/h (3 Bft) SW 0,18 h 38 W/m² 2,8 °C -0,7 °C 17,2 km/h (3 Bft)
23.01.2025 11:00 21,6 °C 4,6 °C 47 % 92 % 1003,2 hPa 0,2 l/m² 16,8 km/h (3 Bft) SW 0,97 h 105 W/m² 3,4 °C -2,1 °C 22,9 km/h (4 Bft)
23.01.2025 12:00 21,6 °C 4,6 °C 47 % 89 % 1005,0 hPa 0,0 l/m² 19,6 km/h (3 Bft) SW 0,80 h 88 W/m² 3,0 °C -3,4 °C 26,7 km/h (4 Bft)
23.01.2025 13:00 21,7 °C 5,7 °C 47 % 86 % 1006,2 hPa 0,0 l/m² 17,7 km/h (3 Bft) SW 1,00 h 215 W/m² 3,5 °C -1,3 °C 23,9 km/h (4 Bft)
23.01.2025 14:00 22,0 °C 6,1 °C 46 % 82 % 1007,1 hPa 0,0 l/m² 17,0 km/h (3 Bft) SW 0,82 h 164 W/m² 3,3 °C -0,3 °C 22,4 km/h (4 Bft)
23.01.2025 15:00 21,8 °C 5,5 °C 47 % 82 % 1008,0 hPa 0,0 l/m² 14,5 km/h (3 Bft) SW 0,00 h 29 W/m² 2,7 °C 0,2 °C 18,4 km/h (3 Bft)
23.01.2025 16:00 21,7 °C 4,8 °C 47 % 84 % 1008,7 hPa 0,0 l/m² 8,7 km/h (2 Bft) SW 0,00 h 19 W/m² 2,4 °C 2,5 °C 11,2 km/h (2 Bft)
23.01.2025 17:00 21,7 °C 4,1 °C 46 % 87 % 1009,7 hPa 0,0 l/m² 10,4 km/h (2 Bft) SW 0,00 h 0 W/m² 2,1 °C 0,9 °C 13,3 km/h (3 Bft)
23.01.2025 18:00 21,6 °C 3,9 °C 46 % 87 % 1010,4 hPa 0,0 l/m² 9,5 km/h (2 Bft) SW 0,00 h 0 W/m² 1,9 °C 1,4 °C 12,3 km/h (2 Bft)
23.01.2025 19:00 21,7 °C 3,6 °C 48 % 86 % 1010,9 hPa 0,0 l/m² 6,3 km/h (2 Bft) SW 0,00 h 0 W/m² 1,5 °C 3,2 °C 7,8 km/h (2 Bft)
23.01.2025 20:00 21,7 °C 3,2 °C 48 % 85 % 1010,9 hPa 0,0 l/m² 6,4 km/h (2 Bft) S 0,00 h 0 W/m² 1,0 °C 2,6 °C 8,5 km/h (2 Bft)
23.01.2025 21:00 21,7 °C 3,0 °C 48 % 86 % 1010,7 hPa 0,0 l/m² 8,1 km/h (2 Bft) S 0,00 h 0 W/m² 0,9 °C 1,4 °C 11,2 km/h (2 Bft)
23.01.2025 22:00 21,8 °C 3,3 °C 48 % 84 % 1010,5 hPa 0,0 l/m² 9,1 km/h (2 Bft) S-SO 0,00 h 0 W/m² 0,9 °C 0,9 °C 12,5 km/h (2 Bft)
23.01.2025 23:00 21,7 °C 3,4 °C 48 % 82 % 1010,3 hPa 0,0 l/m² 7,8 km/h (2 Bft) S-SO 0,00 h 0 W/m² 0,7 °C 2,0 °C 11,8 km/h (2 Bft)
24.01.2025 00:00 21,6 °C 3,4 °C 48 % 82 % 1009,9 hPa 0,0 l/m² 9,5 km/h (2 Bft) S-SO 0,00 h 0 W/m² 0,6 °C 0,7 °C 13,7 km/h (3 Bft)
24.01.2025 01:00 21,5 °C 3,5 °C 48 % 82 % 1009,5 hPa 0,0 l/m² 5,6 km/h (2 Bft) SO 0,00 h 0 W/m² 0,6 °C 2,7 °C 8,2 km/h (2 Bft)
24.01.2025 02:00 21,5 °C 3,7 °C 48 % 84 % 1009,7 hPa 0,0 l/m² 9,9 km/h (2 Bft) S-SW 0,00 h 0 W/m² 1,2 °C 0,8 °C 13,7 km/h (3 Bft)
24.01.2025 03:00 21,4 °C 4,3 °C 48 % 84 % 1009,5 hPa 0,0 l/m² 13,7 km/h (3 Bft) S-SW 0,00 h 0 W/m² 1,9 °C -0,8 °C 18,5 km/h (3 Bft)
24.01.2025 04:00 21,4 °C 3,6 °C 48 % 84 % 1010,0 hPa 0,0 l/m² 6,5 km/h (2 Bft) S-SO 0,00 h 0 W/m² 1,1 °C 2,4 °C 9,6 km/h (2 Bft)
24.01.2025 05:00 21,5 °C 3,6 °C 48 % 86 % 1010,3 hPa 0,0 l/m² 9,5 km/h (2 Bft) S-SW 0,00 h 0 W/m² 1,4 °C 0,7 °C 13,3 km/h (3 Bft)
24.01.2025 06:00 21,5 °C 3,3 °C 48 % 86 % 1010,5 hPa 0,0 l/m² 6,8 km/h (2 Bft) S-SO 0,00 h 0 W/m² 1,2 °C 2,3 °C 10,6 km/h (2 Bft)
24.01.2025 07:00 21,3 °C 2,7 °C 46 % 88 % 1010,4 hPa 0,0 l/m² 12,5 km/h (2 Bft) S 0,00 h 5 W/m² 0,8 °C -2,2 °C 17,7 km/h (3 Bft)
24.01.2025 08:00 21,4 °C 3,0 °C 47 % 88 % 1010,5 hPa 0,0 l/m² 9,1 km/h (2 Bft) SO 0,00 h 21 W/m² 1,3 °C 0,7 °C 12,8 km/h (3 Bft)
24.01.2025 09:00 21,5 °C 4,3 °C 47 % 87 % 1010,2 hPa 0,0 l/m² 12,5 km/h (2 Bft) S-SO 0,92 h 105 W/m² 2,3 °C -0,1 °C 17,2 km/h (3 Bft)
24.01.2025 10:00 21,6 °C 5,7 °C 46 % 85 % 1010,0 hPa 0,0 l/m² 18,6 km/h (3 Bft) S 1,00 h 114 W/m² 3,3 °C -1,6 °C 25,2 km/h (4 Bft)
24.01.2025 11:00 21,6 °C 6,6 °C 46 % 84 % 1009,6 hPa 0,0 l/m² 17,0 km/h (3 Bft) S-SO 1,00 h 171 W/m² 4,2 °C 0,2 °C 22,9 km/h (4 Bft)
24.01.2025 12:00 21,6 °C 7,3 °C 46 % 84 % 1008,7 hPa 0,0 l/m² 14,9 km/h (3 Bft) S-SO 1,00 h 97 W/m² 4,8 °C 2,0 °C 19,8 km/h (3 Bft)
24.01.2025 13:00 21,6 °C 7,6 °C 46 % 84 % 1008,1 hPa 0,0 l/m² 13,1 km/h (3 Bft) S 0,75 h 69 W/m² 5,0 °C 3,3 °C 17,4 km/h (3 Bft)
24.01.2025 14:00 21,6 °C 7,7 °C 46 % 83 % 1007,2 hPa 0,0 l/m² 12,5 km/h (2 Bft) SO 0,00 h 40 W/m² 5,0 °C 3,7 °C 16,5 km/h (3 Bft)
24.01.2025 15:00 21,6 °C 7,7 °C 47 % 83 % 1006,6 hPa 0,0 l/m² 9,9 km/h (2 Bft) S-SO 0,00 h 17 W/m² 5,0 °C 5,3 °C 13,6 km/h (3 Bft)
24.01.2025 16:00 21,5 °C 7,8 °C 47 % 81 % 1005,9 hPa 0,0 l/m² 19,2 km/h (3 Bft) S-SO 0,00 h 6 W/m² 4,8 °C 0,8 °C 24,5 km/h (4 Bft)
24.01.2025 17:00 21,5 °C 7,7 °C 47 % 82 % 1006,1 hPa 0,0 l/m² 11,0 km/h (2 Bft) S-SO 0,00 h 0 W/m² 4,7 °C 4,5 °C 14,4 km/h (3 Bft)
24.01.2025 18:00 21,6 °C 7,7 °C 48 % 79 % 1006,3 hPa 0,0 l/m² 8,6 km/h (2 Bft) S-SO 0,00 h 0 W/m² 4,4 °C 6,1 °C 11,4 km/h (2 Bft)
24.01.2025 19:00 21,5 °C 7,7 °C 48 % 79 % 1006,9 hPa 0,0 l/m² 5,9 km/h (2 Bft) SO 0,00 h 0 W/m² 4,3 °C 7,4 °C 7,7 km/h (2 Bft)
24.01.2025 20:00 21,8 °C 7,9 °C 49 % 78 % 1007,2 hPa 0,0 l/m² 7,1 km/h (2 Bft) S-SO 0,00 h 0 W/m² 4,2 °C 7,1 °C 9,8 km/h (2 Bft)
24.01.2025 21:00 22,2 °C 8,2 °C 50 % 77 % 1007,5 hPa 0,0 l/m² 8,3 km/h (2 Bft) S 0,00 h 0 W/m² 4,5 °C 6,7 °C 10,9 km/h (2 Bft)
24.01.2025 22:00 22,3 °C 8,4 °C 51 % 80 % 1007,4 hPa 0,0 l/m² 8,4 km/h (2 Bft) S 0,00 h 0 W/m² 5,0 °C 6,9 °C 10,8 km/h (2 Bft)
24.01.2025 23:00 22,0 °C 7,9 °C 51 % 81 % 1007,6 hPa 0,0 l/m² 8,3 km/h (2 Bft) S 0,00 h 0 W/m² 4,9 °C 6,4 °C 11,5 km/h (2 Bft)
25.01.2025 00:00 21,9 °C 7,8 °C 51 % 82 % 1007,7 hPa 0,0 l/m² 7,9 km/h (2 Bft) S-SO 0,00 h 0 W/m² 5,0 °C 6,6 °C 10,5 km/h (2 Bft)
25.01.2025 01:00 21,8 °C 7,7 °C 51 % 84 % 1007,7 hPa 0,0 l/m² 4,4 km/h (1 Bft) S-SO 0,00 h 0 W/m² 5,2 °C 7,5 °C 6,7 km/h (2 Bft)
25.01.2025 02:00 21,7 °C 8,1 °C 51 % 83 % 1007,1 hPa 0,0 l/m² 4,7 km/h (1 Bft) S-SO 0,00 h 0 W/m² 5,5 °C 8,0 °C 7,5 km/h (2 Bft)
25.01.2025 03:00 21,7 °C 9,0 °C 51 % 80 % 1006,6 hPa 0,0 l/m² 6,7 km/h (2 Bft) O 0,00 h 0 W/m² 5,6 °C 8,2 °C 9,6 km/h (2 Bft)
25.01.2025 04:00 21,7 °C 8,3 °C 51 % 79 % 1006,3 hPa 0,0 l/m² 2,5 km/h (1 Bft) O-NO 0,00 h 0 W/m² 5,0 °C 8,3 °C 4,7 km/h (1 Bft)
25.01.2025 05:00 21,7 °C 8,0 °C 51 % 79 % 1006,2 hPa 0,0 l/m² 5,6 km/h (2 Bft) S 0,00 h 0 W/m² 4,5 °C 7,0 °C 9,6 km/h (2 Bft)
25.01.2025 06:00 21,6 °C 8,7 °C 51 % 76 % 1006,1 hPa 0,0 l/m² 7,2 km/h (2 Bft) S 0,00 h 0 W/m² 4,7 °C 6,8 °C 11,9 km/h (2 Bft)
25.01.2025 07:00 21,6 °C 8,6 °C 51 % 75 % 1005,9 hPa 0,0 l/m² 8,4 km/h (2 Bft) S-SO 0,00 h 0 W/m² 4,5 °C 6,3 °C 12,5 km/h (2 Bft)
25.01.2025 08:00 21,7 °C 9,3 °C 52 % 73 % 1006,1 hPa 0,0 l/m² 9,6 km/h (2 Bft) S 0,00 h 15 W/m² 4,7 °C 7,0 °C 14,3 km/h (3 Bft)
25.01.2025 09:00 21,8 °C 10,0 °C 52 % 72 % 1005,5 hPa 0,0 l/m² 2,1 km/h (1 Bft) S-SW 0,33 h 47 W/m² 5,1 °C 10,0 °C 4,7 km/h (1 Bft)
25.01.2025 10:00 21,9 °C 10,5 °C 51 % 73 % 1005,2 hPa 0,0 l/m² 5,1 km/h (1 Bft) S-SW 0,95 h 83 W/m² 5,9 °C 9,2 °C 8,0 km/h (2 Bft)
25.01.2025 11:00 21,9 °C 12,0 °C 49 % 66 % 1004,8 hPa 0,0 l/m² 13,2 km/h (3 Bft) S 1,00 h 148 W/m² 5,9 °C 8,4 °C 18,1 km/h (3 Bft)
25.01.2025 12:00 21,9 °C 13,7 °C 50 % 60 % 1004,9 hPa 0,0 l/m² 19,7 km/h (3 Bft) S 1,00 h 94 W/m² 6,1 °C 8,2 °C 27,5 km/h (5 Bft)
25.01.2025 13:00 21,8 °C 14,1 °C 51 % 62 % 1005,3 hPa 0,0 l/m² 12,6 km/h (3 Bft) S 0,67 h 76 W/m² 6,8 °C 11,0 °C 16,6 km/h (3 Bft)
25.01.2025 14:00 21,7 °C 13,8 °C 51 % 63 % 1005,5 hPa 0,0 l/m² 13,4 km/h (3 Bft) S 0,27 h 45 W/m² 6,9 °C 10,4 °C 17,6 km/h (3 Bft)
25.01.2025 15:00 21,8 °C 14,2 °C 51 % 63 % 1005,8 hPa 0,0 l/m² 17,6 km/h (3 Bft) S-SW 0,50 h 47 W/m² 7,4 °C 9,5 °C 23,4 km/h (4 Bft)
25.01.2025 16:00 21,9 °C 13,7 °C 51 % 67 % 1006,2 hPa 0,0 l/m² 12,6 km/h (3 Bft) SW 0,00 h 9 W/m² 7,6 °C 10,5 °C 16,5 km/h (3 Bft)
25.01.2025 17:00 21,9 °C 12,7 °C 53 % 72 % 1006,7 hPa 0,0 l/m² 9,6 km/h (2 Bft) SW 0,00 h 0 W/m² 7,8 °C 10,8 °C 13,0 km/h (3 Bft)
25.01.2025 18:00 21,9 °C 12,2 °C 55 % 74 % 1007,4 hPa 0,0 l/m² 3,1 km/h (1 Bft) SW 0,00 h 0 W/m² 7,8 °C 12,0 °C 4,2 km/h (1 Bft)
25.01.2025 19:00 22,1 °C 11,1 °C 56 % 79 % 1008,1 hPa 0,0 l/m² 7,4 km/h (2 Bft) SW 0,00 h 0 W/m² 7,6 °C 9,2 °C 11,3 km/h (2 Bft)
25.01.2025 20:00 22,1 °C 9,6 °C 55 % 85 % 1008,4 hPa 0,0 l/m² 4,7 km/h (1 Bft) NW 0,00 h 0 W/m² 7,2 °C 9,3 °C 8,8 km/h (2 Bft)
25.01.2025 21:00 22,1 °C 8,9 °C 54 % 85 % 1008,3 hPa 0,0 l/m² 1,4 km/h (1 Bft) W-NW 0,00 h 0 W/m² 6,5 °C 8,8 °C 3,7 km/h (1 Bft)
25.01.2025 22:00 22,1 °C 8,2 °C 53 % 87 % 1008,4 hPa 2,0 l/m² 0,3 km/h (0 Bft) W-NW 0,00 h 0 W/m² 6,1 °C 8,2 °C 1,1 km/h (1 Bft)
25.01.2025 23:00 21,8 °C 7,4 °C 54 % 89 % 1007,4 hPa 0,4 l/m² 1,2 km/h (1 Bft) N-NW 0,00 h 0 W/m² 5,8 °C 7,4 °C 2,6 km/h (1 Bft)
26.01.2025 00:00 21,8 °C 7,1 °C 54 % 91 % 1007,1 hPa 0,0 l/m² 0,1 km/h (0 Bft) N-NW 0,00 h 0 W/m² 5,7 °C 7,1 °C 0,6 km/h (0 Bft)
26.01.2025 01:00 21,7 °C 6,7 °C 53 % 92 % 1006,8 hPa 0,0 l/m² 2,4 km/h (1 Bft) W 0,00 h 0 W/m² 5,5 °C 6,4 °C 4,7 km/h (1 Bft)
26.01.2025 02:00 21,8 °C 6,7 °C 53 % 93 % 1006,2 hPa 0,2 l/m² 8,3 km/h (2 Bft) N-NW 0,00 h 0 W/m² 5,7 °C 5,2 °C 14,4 km/h (3 Bft)
26.01.2025 03:00 21,7 °C 6,3 °C 53 % 93 % 1005,4 hPa 0,0 l/m² 0,8 km/h (0 Bft) NO 0,00 h 0 W/m² 5,3 °C 6,3 °C 1,9 km/h (1 Bft)
26.01.2025 04:00 21,7 °C 6,2 °C 53 % 93 % 1005,3 hPa 0,4 l/m² 0,6 km/h (0 Bft) NO 0,00 h 0 W/m² 5,1 °C 6,2 °C 1,0 km/h (0 Bft)
26.01.2025 05:00 21,7 °C 6,0 °C 53 % 94 % 1004,8 hPa 0,0 l/m² 0,0 km/h (0 Bft) NO 0,00 h 0 W/m² 5,0 °C 6,0 °C 0,1 km/h (0 Bft)
26.01.2025 06:00 21,7 °C 6,0 °C 52 % 94 % 1004,7 hPa 0,0 l/m² 1,6 km/h (1 Bft) W 0,00 h 0 W/m² 5,1 °C 6,0 °C 3,0 km/h (1 Bft)
26.01.2025 07:00 21,7 °C 6,1 °C 52 % 94 % 1004,7 hPa 0,0 l/m² 4,6 km/h (1 Bft) S 0,00 h 0 W/m² 5,2 °C 5,1 °C 7,6 km/h (2 Bft)
26.01.2025 08:00 21,7 °C 7,1 °C 53 % 94 % 1005,3 hPa 0,0 l/m² 3,6 km/h (1 Bft) S 0,00 h 13 W/m² 6,2 °C 6,8 °C 6,1 km/h (2 Bft)
26.01.2025 09:00 21,9 °C 7,7 °C 54 % 93 % 1005,6 hPa 0,0 l/m² 5,0 km/h (1 Bft) S 0,42 h 49 W/m² 6,6 °C 7,0 °C 8,6 km/h (2 Bft)
26.01.2025 10:00 21,9 °C 9,0 °C 51 % 86 % 1005,8 hPa 0,0 l/m² 3,8 km/h (1 Bft) S-SW 1,00 h 118 W/m² 6,9 °C 8,9 °C 6,6 km/h (2 Bft)
26.01.2025 11:00 21,8 °C 10,2 °C 48 % 81 % 1005,4 hPa 0,0 l/m² 11,6 km/h (2 Bft) S-SW 1,00 h 201 W/m² 7,1 °C 7,2 °C 16,1 km/h (3 Bft)
26.01.2025 12:00 21,7 °C 10,1 °C 49 % 75 % 1005,4 hPa 0,2 l/m² 22,7 km/h (4 Bft) SW 1,00 h 153 W/m² 5,9 °C 2,6 °C 31,1 km/h (5 Bft)
26.01.2025 13:00 21,6 °C 9,8 °C 50 % 77 % 1005,8 hPa 0,0 l/m² 22,1 km/h (4 Bft) SW 1,00 h 202 W/m² 5,9 °C 2,5 °C 29,2 km/h (5 Bft)
26.01.2025 14:00 21,6 °C 8,8 °C 50 % 77 % 1006,5 hPa 0,0 l/m² 25,0 km/h (4 Bft) SW 0,47 h 82 W/m² 5,1 °C 0,3 °C 33,5 km/h (5 Bft)
26.01.2025 15:00 21,6 °C 7,9 °C 50 % 78 % 1007,0 hPa 0,0 l/m² 23,8 km/h (4 Bft) SW 0,00 h 27 W/m² 4,4 °C -0,4 °C 30,3 km/h (5 Bft)
26.01.2025 16:00 21,5 °C 7,6 °C 51 % 78 % 1007,6 hPa 0,0 l/m² 15,0 km/h (3 Bft) S-SW 0,00 h 11 W/m² 4,1 °C 2,4 °C 19,2 km/h (3 Bft)
26.01.2025 17:00 21,4 °C 7,1 °C 51 % 78 % 1007,9 hPa 0,0 l/m² 9,4 km/h (2 Bft) S-SW 0,00 h 0 W/m² 3,6 °C 4,8 °C 12,0 km/h (2 Bft)
26.01.2025 18:00 21,4 °C 6,7 °C 51 % 81 % 1008,0 hPa 0,0 l/m² 3,5 km/h (1 Bft) S-SW 0,00 h 0 W/m² 3,6 °C 6,6 °C 5,2 km/h (1 Bft)
26.01.2025 19:00 21,4 °C 6,2 °C 51 % 81 % 1007,8 hPa 0,0 l/m² 6,4 km/h (2 Bft) S-SO 0,00 h 0 W/m² 3,3 °C 5,4 °C 9,2 km/h (2 Bft)
26.01.2025 20:00 21,4 °C 5,3 °C 51 % 81 % 1007,1 hPa 0,0 l/m² 6,3 km/h (2 Bft) SO 0,00 h 0 W/m² 2,2 °C 4,7 °C 8,7 km/h (2 Bft)
26.01.2025 21:00 21,5 °C 4,4 °C 51 % 82 % 1006,2 hPa 0,0 l/m² 7,0 km/h (2 Bft) SO 0,00 h 0 W/m² 1,7 °C 3,2 °C 9,6 km/h (2 Bft)
26.01.2025 22:00 21,5 °C 4,7 °C 51 % 80 % 1005,0 hPa 0,0 l/m² 11,0 km/h (2 Bft) SO 0,00 h 0 W/m² 1,6 °C 1,1 °C 14,7 km/h (3 Bft)
26.01.2025 23:00 21,4 °C 4,7 °C 51 % 79 % 1004,3 hPa 0,0 l/m² 9,3 km/h (2 Bft) SO 0,00 h 0 W/m² 1,3 °C 2,4 °C 13,0 km/h (3 Bft)
Min-Datum _ 26.01.25 22.01.25 22.01.25 25.01.25 23.01.25 - 26.01.25 - - - 22.01.25 23.01.25 26.01.25
_ Min-Zeit 20:03 06:07 07:00 12:54 08:14 - 09:10 - - - 06:07 12:16 09:10
Minimum _ 21,3 °C -5,9 °C 43 % 57 % 998,7 hPa - 0,0 km/h (0 Bft) - - - -6,8 °C -5,9 °C 0,0 km/h (0 Bft)
Max-Datum _ 20.01.25 25.01.25 25.01.25 21.01.25 20.01.25 25.01.25 26.01.25 - 26.01.25 26.01.25 25.01.25 25.01.25 26.01.25
_ Max-Zeit 13:00 15:19 19:01 20:05 00:00 22:01 15:12 - 14:01 13:31 17:53 13:39 15:11
Maximum _ 23,6 °C 14,3 °C 56 % 96 % 1021,2 hPa 2,0 l/m² 33,9 km/h
SW (5 Bft)
- 0,03 h 455 W/m² 8,0 °C 12,9 °C 48,3 km/h
SW (6 Bft)
Durchschnitt _ 22,0 °C 3,1 °C 49 % 87 % 1010,7 hPa #5,0 l/m² 5,9 km/h (2 Bft) O-SO #37:00 h 36 W/m² 1,0 °C 1,7 °C 8,3 km/h (2 Bft)
© 2009 Mathias Hoßbach